Content
SEND FEEDBACK

Daily
Averages
Monthly
Summary
United States of America

INARAJAN, GUAM


Home > North America > United States > Guam
Elevation: 280 feet     Latitude: 13 18N     Longitude: 144 44E

WEATHER
 
SELECT A DAY
Number of Records: 341,964;   Date Range: 1/1/95 - 7/26/14
 
SHARE

PRINT THIS DATA

[ ← Previous Day ]
WEATHER ALMANAC - SEPTEMBER 5, 2013
[ Next Day → ]
[ °C ]   °F
Weather ElementAverageHighLow
Temperature80.8 °F86 °F (10:55 am)73.4 °F (5:59 pm)
Dewpoint75.3 °F78.8 °F (11:47 am)68 °F (5:59 pm)
Humidity83.6 %94 % (8:28 pm)70 % (8:55 am)
Barometer29.83 in29.87 in (9:17 pm)29.78 in (4:58 pm)
Wind Speed10.9 mph28.8 mph (8:18 pm)
Wind Gust33.4 mph (8:18 pm)
Weather ElementAverage
Visibility9.4 mi
Wind DirectionENE (70.7 °)

Weather ElementTotal
Precipitation0.24 in
Cooling Degree Days14.7 (Base 65)
Growing Degree Days29.7 (Base 50)
Averaged from 43 records on September 5, 2013
WEATHER CONDITIONS BREAKOUT
WIND DIRECTION BREAKOUT
WEATHER BY HOUR - SEPTEMBER 5, 2013
[ °C ]   °F
Local TimeTemperatureDewpointHumidityBarometerVisibilityWind DirectionWind SpeedGust SpeedPrecipitationEventsConditions
1:58 AM79.7 °F74.8 °F85 %29.82 in10.0 miENE (60°)8.1 mphClear
2:58 AM79.7 °F75.0 °F86 %29.81 in10.0 miNE (40°)5.8 mphPartly Cloudy
3:58 AM79.9 °F74.8 °F85 %29.80 in10.0 miNE (50°)6.9 mphClear
4:58 AM79.5 °F74.5 °F84 %29.82 in10.0 miNE (50°)4.6 mphPartly Cloudy
5:58 AM79.9 °F74.7 °F84 %29.82 in10.0 miNE (40°)8.1 mphScattered Clouds
6:38 AM80.6 °F75.2 °F84 %29.83 in10.0 miNE (40°)9.2 mphMostly Cloudy
6:55 AM80.6 °F75.2 °F84 %29.83 in10.0 miNE (50°)8.1 mphLight Drizzle
6:58 AM80.8 °F75.9 °F85 %29.83 in10.0 miNE (50°)9.2 mph0.00 inLight Drizzle
7:07 AM80.6 °F73.4 °F79 %29.83 in10.0 miNE (40°)9.2 mphMostly Cloudy
7:55 AM82.4 °F77.0 °F84 %29.85 in10.0 miENE (70°)8.1 mphPartly Cloudy
8:55 AM84.2 °F73.4 °F70 %29.85 in10.0 miEast (90°)10.4 mphClear
9:55 AM84.2 °F77.0 °F79 %29.85 in10.0 miEast (80°)11.5 mphPartly Cloudy
10:55 AM86.0 °F77.0 °F74 %29.85 in10.0 miEast (80°)9.2 mph18.4 mphScattered Clouds
11:47 AM84.2 °F78.8 °F84 %29.84 in10.0 miEast (90°)11.5 mphMostly Cloudy
11:51 AM84.2 °F77.0 °F79 %29.84 in10.0 miEast (100°)9.2 mphMostly Cloudy
11:55 AM84.2 °F78.8 °F84 %29.84 in10.0 miESE (110°)10.4 mphMostly Cloudy
12:01 PM86.0 °F77.0 °F74 %29.84 in10.0 miEast (90°)8.1 mphMostly Cloudy
12:32 PM84.2 °F77.0 °F79 %29.83 in10.0 miEast (80°)11.5 mphMostly Cloudy
12:42 PM84.2 °F77.0 °F79 %29.83 in10.0 miEast (90°)11.5 mphMostly Cloudy
12:52 PM84.2 °F77.0 °F79 %29.82 in10.0 miEast (90°)10.4 mphMostly Cloudy
12:55 PM84.2 °F77.0 °F79 %29.82 in10.0 miEast (90°)11.5 mphScattered Clouds
1:55 PM86.0 °F77.0 °F74 %29.80 in10.0 miENE (60°)12.7 mphScattered Clouds
2:58 PM85.8 °F77.0 °F75 %29.79 in10.0 miENE (60°)11.5 mphPartly Cloudy
3:58 PM85.6 °F76.1 °F73 %29.79 in10.0 miEast (80°)12.7 mphScattered Clouds
4:58 PM84.4 °F75.7 °F75 %29.78 in10.0 miENE (70°)12.7 mphClear
5:59 PM73.4 °F68.0 °F83 %29.79 in10.0 miENE (60°)6.9 mph0.02 inScattered Clouds
6:58 PM79.3 °F76.6 °F91 %29.81 in10.0 miENE (60°)8.1 mphClear
7:58 PM81.5 °F76.1 °F84 %29.84 in10.0 miNE (50°)12.7 mphThunderstormThunderstorm
8:18 PM80.6 °F75.2 °F84 %29.85 in10.0 miEast (100°)28.8 mph33.4 mphMostly Cloudy
8:28 PM77.0 °F75.2 °F94 %29.85 in6.0 miEast (90°)17.3 mph32.2 mphMostly Cloudy
8:31 PM77.0 °F75.2 °F94 %29.85 in2.0 miEast (90°)18.4 mph24.2 mphRainLight Rain
8:36 PM77.0 °F75.2 °F94 %29.86 in2.0 miEast (90°)17.3 mph24.2 mphRainLight Rain
8:42 PM77.0 °F75.2 °F94 %29.86 in5.0 miEast (90°)11.5 mphRainLight Rain
8:59 PM76.8 °F73.8 °F90 %29.86 in9.0 miEast (100°)8.1 mph0.13 inRainLight Rain
9:17 PM77.0 °F73.4 °F89 %29.87 in10.0 miENE (70°)15.0 mphPartly Cloudy
9:20 PM78.8 °F75.2 °F89 %29.87 in10.0 miENE (70°)18.4 mphLight Drizzle
9:37 PM77.0 °F73.4 °F89 %29.86 in10.0 miNNE (30°)10.4 mphPartly Cloudy
9:58 PM77.5 °F73.8 °F88 %29.86 in10.0 miNE (50°)8.1 mph0.03 inClear
10:19 PM77.0 °F73.4 °F89 %29.86 in10.0 miENE (60°)12.7 mph21.9 mphLight Drizzle
10:36 PM77.0 °F71.6 °F83 %29.85 in10.0 miENE (60°)8.1 mphScattered Clouds
10:58 PM77.4 °F73.8 °F89 %29.85 in10.0 miEast (80°)6.9 mph0.03 inPartly Cloudy
11:33 PM80.6 °F75.2 °F84 %29.81 in10.0 miENE (60°)10.4 mphMostly Cloudy
11:58 PM77.4 °F73.8 °F89 %29.85 in10.0 miEast (80°)6.9 mph0.03 inPartly Cloudy
Hourly data recorded from PGUA, located miles away from Inarajan, Guam







STORIES FROM OUR PARTNERS